• In United Kingdom
  • List of Countries
  • For 7 days
  • Water Temperature
  • Satellite Maps
  • Weather Map
  • Weather Widgets
  • user-avatar
    Login

    Hourly Weather Bielce

    Today, 20 September, Wednesday

    Time Temperature Precipitation Wind Pressure Humidity
    00:00 +15°C° 0.2 mm 4 mps 750 mmHg 61%
    01:00 +14°C° 0.2 mm 4 mps 749 mmHg 62%
    02:00 +14°C° 0 mm 1 mps 749 mmHg 75%
    03:00 +14°C° 0.1 mm 2 mps 749 mmHg 75%
    04:00 +14°C° 0.1 mm 2 mps 749 mmHg 75%
    05:00 +12°C° 0.1 mm 3 mps 748 mmHg 75%
    06:00 +14°C° 0 mm 3 mps 748 mmHg 70%
    07:00 +16°C° 0 mm 3 mps 748 mmHg 65%
    08:00 +17°C° 0 mm 3 mps 748 mmHg 56%
    09:00 +20°C° 0 mm 3 mps 748 mmHg 51%
    10:00 +23°C° 0 mm 2 mps 748 mmHg 46%
    11:00 +25°C° 0 mm 2 mps 748 mmHg 42%
    12:00 +26°C° 0 mm 2 mps 748 mmHg 41%
    13:00 +27°C° 0 mm 2 mps 747 mmHg 41%
    14:00 +28°C° 0 mm 2 mps 747 mmHg 40%
    15:00 +28°C° 0.3 mm 2 mps 746 mmHg 43%
    16:00 +27°C° 0.3 mm 2 mps 746 mmHg 46%
    17:00 +27°C° 0.3 mm 2 mps 746 mmHg 49%
    18:00 +25°C° 2.2 mm 2 mps 746 mmHg 58%
    19:00 +23°C° 2.2 mm 2 mps 745 mmHg 68%
    20:00 +20°C° 2.2 mm 2 mps 745 mmHg 78%
    21:00 +20°C° 0.6 mm 2 mps 745 mmHg 80%
    22:00 +20°C° 0.6 mm 3 mps 745 mmHg 83%
    23:00 +20°C° 0.6 mm 3 mps 745 mmHg 85%

    Tomorrow, 21 September, Thursday

    Time Temperature Precipitation Wind Pressure Humidity
    00:00 +20°C° 0.6 mm 3 mps 744 mmHg 88%
    01:00 +19°C° 0.6 mm 2 mps 744 mmHg 90%
    02:00 +19°C° 0.6 mm 2 mps 744 mmHg 93%
    03:00 +19°C° 0 mm 2 mps 744 mmHg 94%
    04:00 +19°C° 0 mm 2 mps 744 mmHg 94%
    05:00 +18°C° 0 mm 2 mps 744 mmHg 95%
    06:00 +19°C° 0 mm 2 mps 744 mmHg 93%
    07:00 +19°C° 0 mm 2 mps 744 mmHg 91%
    08:00 +19°C° 0 mm 2 mps 744 mmHg 89%
    09:00 +20°C° 0 mm 2 mps 744 mmHg 85%
    10:00 +20°C° 0 mm 2 mps 744 mmHg 81%
    11:00 +21°C° 0 mm 2 mps 744 mmHg 78%
    12:00 +23°C° 0 mm 2 mps 744 mmHg 73%
    13:00 +24°C° 0 mm 2 mps 744 mmHg 67%
    14:00 +24°C° 0 mm 2 mps 744 mmHg 62%
    15:00 +24°C° 0.1 mm 2 mps 744 mmHg 62%
    16:00 +24°C° 0.1 mm 2 mps 745 mmHg 62%
    17:00 +24°C° 0.1 mm 2 mps 745 mmHg 62%
    18:00 +23°C° 0.4 mm 2 mps 745 mmHg 68%
    19:00 +20°C° 0.4 mm 3 mps 745 mmHg 75%
    20:00 +19°C° 0.4 mm 3 mps 746 mmHg 81%
    21:00 +18°C° 0 mm 3 mps 746 mmHg 84%
    22:00 +17°C° 0 mm 3 mps 746 mmHg 87%
    23:00 +17°C° 0 mm 3 mps 747 mmHg 90%

    Day after tomorrow, 22 September, Friday

    Time Temperature Precipitation Wind Pressure Humidity
    00:00 +16°C° 0 mm 3 mps 747 mmHg 91%
    01:00 +16°C° 0 mm 3 mps 747 mmHg 93%
    02:00 +14°C° 0 mm 3 mps 748 mmHg 94%
    03:00 +14°C° 0.1 mm 3 mps 748 mmHg 93%
    04:00 +14°C° 0.1 mm 3 mps 748 mmHg 93%
    05:00 +14°C° 0.1 mm 3 mps 748 mmHg 92%
    06:00 +14°C° 0.1 mm 4 mps 749 mmHg 90%
    07:00 +15°C° 0.1 mm 4 mps 749 mmHg 88%
    08:00 +15°C° 0.1 mm 5 mps 749 mmHg 86%
    09:00 +15°C° 0.7 mm 5 mps 749 mmHg 85%
    10:00 +15°C° 0.7 mm 5 mps 749 mmHg 84%
    11:00 +15°C° 0.7 mm 5 mps 749 mmHg 84%
    12:00 +16°C° 1.4 mm 5 mps 749 mmHg 84%
    13:00 +16°C° 1.4 mm 5 mps 750 mmHg 84%
    14:00 +16°C° 1.4 mm 5 mps 750 mmHg 84%
    15:00 +16°C° 1 mm 5 mps 750 mmHg 85%
    16:00 +16°C° 1 mm 5 mps 750 mmHg 86%
    17:00 +15°C° 1 mm 5 mps 750 mmHg 87%
    18:00 +15°C° 1.4 mm 6 mps 750 mmHg 88%
    19:00 +15°C° 1.4 mm 6 mps 750 mmHg 88%
    20:00 +14°C° 1.4 mm 6 mps 750 mmHg 88%
    21:00 +14°C° 1.3 mm 7 mps 749 mmHg 88%
    22:00 +14°C° 1.3 mm 7 mps 749 mmHg 88%
    23:00 +14°C° 1.3 mm 7 mps 749 mmHg 88%

    23 September, Saturday

    Time Temperature Precipitation Wind Pressure Humidity
    00:00 +14°C° 1.4 mm 7 mps 749 mmHg 88%
    01:00 +14°C° 1.4 mm 7 mps 748 mmHg 89%
    02:00 +14°C° 1.4 mm 7 mps 748 mmHg 89%
    03:00 +14°C° 0.7 mm 6 mps 748 mmHg 89%
    04:00 +14°C° 0.7 mm 5 mps 748 mmHg 90%
    05:00 +14°C° 0.7 mm 4 mps 748 mmHg 90%
    06:00 +14°C° 0.3 mm 4 mps 748 mmHg 90%
    07:00 +14°C° 0.3 mm 4 mps 748 mmHg 90%
    08:00 +14°C° 0.3 mm 4 mps 749 mmHg 90%
    09:00 +14°C° 0.1 mm 4 mps 749 mmHg 88%
    10:00 +15°C° 0.1 mm 4 mps 749 mmHg 86%
    11:00 +15°C° 0.1 mm 4 mps 750 mmHg 84%
    12:00 +15°C° 0.1 mm 4 mps 750 mmHg 82%
    13:00 +17°C° 0.1 mm 4 mps 750 mmHg 81%
    14:00 +17°C° 0.1 mm 4 mps 750 mmHg 79%
    15:00 +17°C° 0 mm 4 mps 751 mmHg 79%
    16:00 +17°C° 0 mm 3 mps 751 mmHg 79%
    17:00 +16°C° 0 mm 3 mps 751 mmHg 79%
    18:00 +16°C° 0 mm 2 mps 751 mmHg 81%
    19:00 +15°C° 0 mm 2 mps 751 mmHg 84%
    20:00 +14°C° 0 mm 2 mps 752 mmHg 86%
    21:00 +14°C° 0.1 mm 2 mps 752 mmHg 86%
    22:00 +14°C° 0.1 mm 2 mps 752 mmHg 87%
    23:00 +14°C° 0.1 mm 2 mps 751 mmHg 87%

    24 September, Sunday

    Time Temperature Precipitation Wind Pressure Humidity
    00:00 +14°C° 0.4 mm 2 mps 751 mmHg 88%
    01:00 +13°C° 0.4 mm 2 mps 751 mmHg 89%
    02:00 +13°C° 0.4 mm 2 mps 751 mmHg 90%
    03:00 +13°C° 0.3 mm 2 mps 752 mmHg 90%
    04:00 +12°C° 0.3 mm 3 mps 752 mmHg 90%
    05:00 +12°C° 0.3 mm 3 mps 752 mmHg 90%
    06:00 +13°C° 0.1 mm 3 mps 752 mmHg 88%
    07:00 +13°C° 0.1 mm 3 mps 752 mmHg 87%
    08:00 +13°C° 0.1 mm 3 mps 752 mmHg 85%
    09:00 +14°C° 0.1 mm 4 mps 753 mmHg 81%
    10:00 +15°C° 0.1 mm 4 mps 753 mmHg 76%
    11:00 +17°C° 0.1 mm 4 mps 753 mmHg 72%
    12:00 +17°C° 0.1 mm 4 mps 753 mmHg 70%
    13:00 +18°C° 0.1 mm 4 mps 753 mmHg 67%
    14:00 +19°C° 0.1 mm 4 mps 753 mmHg 65%
    15:00 +19°C° 0.4 mm 3 mps 753 mmHg 65%
    16:00 +19°C° 0.4 mm 3 mps 753 mmHg 66%
    17:00 +19°C° 0.4 mm 2 mps 753 mmHg 67%
    18:00 +18°C° 0.4 mm 2 mps 754 mmHg 71%
    19:00 +17°C° 0.4 mm 2 mps 754 mmHg 75%
    20:00 +16°C° 0.4 mm 1 mps 754 mmHg 79%
    21:00 +16°C° 0 mm 1 mps 754 mmHg 81%
    22:00 +15°C° 0 mm 1 mps 754 mmHg 83%
    23:00 +15°C° 0 mm 1 mps 754 mmHg 85%

    25 September, Monday

    Time Temperature Precipitation Wind Pressure Humidity
    00:00 +15°C° 0 mm 1 mps 754 mmHg 86%
    01:00 +14°C° 0 mm 1 mps 754 mmHg 87%
    02:00 +14°C° 0 mm 1 mps 754 mmHg 87%
    03:00 +14°C° 0 mm 1 mps 754 mmHg 88%
    04:00 +14°C° 0 mm 1 mps 755 mmHg 89%
    05:00 +13°C° 0 mm 1 mps 755 mmHg 89%
    06:00 +14°C° 0 mm 2 mps 755 mmHg 86%
    07:00 +15°C° 0 mm 2 mps 755 mmHg 83%
    08:00 +16°C° 0 mm 2 mps 755 mmHg 79%
    09:00 +18°C° 0.1 mm 2 mps 755 mmHg 71%
    10:00 +20°C° 0.1 mm 3 mps 755 mmHg 64%
    11:00 +21°C° 0.1 mm 3 mps 755 mmHg 56%
    12:00 +22°C° 0 mm 3 mps 755 mmHg 52%
    13:00 +24°C° 0 mm 3 mps 755 mmHg 48%
    14:00 +25°C° 0 mm 3 mps 755 mmHg 44%
    15:00 +24°C° 0 mm 2 mps 755 mmHg 47%
    16:00 +24°C° 0 mm 2 mps 755 mmHg 49%
    17:00 +23°C° 0 mm 1 mps 755 mmHg 52%
    18:00 +22°C° 0 mm 1 mps 755 mmHg 53%
    19:00 +21°C° 0 mm 1 mps 756 mmHg 55%
    20:00 +21°C° 0 mm 1 mps 756 mmHg 56%
    21:00 +20°C° 0 mm 1 mps 756 mmHg 58%
    22:00 +19°C° 0 mm 1 mps 756 mmHg 60%
    23:00 +18°C° 0 mm 2 mps 756 mmHg 62%
    Show more